Location: Harwich
(41.6860°N, 70.0760°W)
Time: 10:45:00
(UTC-04:00)

Cosmos 2228 - Visible Passes

Search period start: 27 April 2017 00:00
Search period end: 07 May 2017 00:00
Orbit: 592 x 618 km, 82.5° (Epoch: 25 April)

Date Brightness Start Highest point End Pass type
(mag) Time Alt. Az. Time Alt. Az. Time Alt. Az.
27 Apr 5.2 01:19:04 10° N 01:21:11 24° NNE 01:21:11 24° NNE visible
27 Apr 5.4 02:57:15 10° NW 02:58:02 13° NW 02:58:02 13° NW visible
28 Apr 5.0 01:31:51 10° N 01:34:01 28° N 01:34:01 28° N visible
29 Apr 4.9 01:44:47 10° N 01:46:51 27° NNW 01:46:51 27° NNW visible
30 Apr 5.7 00:21:40 10° NNE 00:22:51 13° NE 00:22:51 13° NE visible
30 Apr 5.0 01:57:55 10° NNW 01:59:42 23° NNW 01:59:42 23° NNW visible
01 May 5.4 00:33:52 10° NNE 00:35:43 19° NE 00:35:43 19° NE visible
01 May 5.3 02:11:16 10° NNW 02:12:34 17° NW 02:12:34 17° NW visible
02 May 5.1 00:46:28 10° N 00:48:35 25° NNE 00:48:35 25° NNE visible
02 May 5.6 02:24:58 10° NW 02:25:27 12° NW 02:25:27 12° NW visible
03 May 4.9 00:59:16 10° N 01:01:28 28° N 01:01:28 28° N visible
04 May 4.9 01:12:16 10° NNW 01:14:22 27° NNW 01:14:22 27° NNW visible
04 May 5.5 23:48:51 10° NNE 23:50:24 15° NE 23:50:24 15° NE visible
05 May 5.1 01:25:27 10° NNW 01:27:16 22° NW 01:27:16 22° NW visible
06 May 5.1 00:01:11 10° NNE 00:03:19 22° NE 00:03:19 22° NE visible
06 May 5.4 01:38:52 10° NW 01:40:11 16° NW 01:40:11 16° NW visible
